| time (UTC) | temp C | wind direction | speed KPH | gust KPH | rain 1hr cm | rain 24hr cm | rain mn cm | humidity % | barometer mb |
| 20260505211556 | 25 | 64 | 4.8 | 17.7 | 0.00 | 0.00 | 0.00 | 60 | 1014.5 |
| 20260505210056 | 24 | 74 | 6.4 | 16.1 | 0.00 | 0.00 | 0.00 | 61 | 1014.8 |
| 20260505204601 | 25 | 26 | 4.8 | 22.5 | 0.00 | 0.00 | 0.00 | 59 | 1014.9 |
| 20260505203102 | 25 | 76 | 8.0 | 17.7 | 0.00 | 0.00 | 0.00 | 58 | 1014.9 |
| 20260505201553 | 25 | 98 | 4.8 | 20.9 | 0.00 | 0.00 | 0.00 | 60 | 1015.4 |
| 20260505200051 | 25 | 115 | 6.4 | 20.9 | 0.00 | 0.00 | 0.00 | 61 | 1015.3 |
| 20260505194604 | 25 | 87 | 6.4 | 20.9 | 0.00 | 0.00 | 0.00 | 59 | 1015.6 |
| 20260505193052 | 26 | 182 | 4.8 | 19.3 | 0.00 | 0.00 | 0.00 | 57 | 1015.6 |
| 20260505191553 | 26 | 124 | 3.2 | 19.3 | 0.00 | 0.00 | 0.00 | 58 | 1015.6 |
| 20260505190055 | 25 | 36 | 4.8 | 20.9 | 0.00 | 0.00 | 0.00 | 57 | 1015.8 |
| 20260505184552 | 26 | 81 | 6.4 | 17.7 | 0.00 | 0.00 | 0.00 | 58 | 1016.1 |
| 20260505183101 | 26 | 51 | 1.6 | 17.7 | 0.00 | 0.00 | 0.00 | 59 | 1016.1 |
| 20260505181556 | 25 | 96 | 3.2 | 12.9 | 0.00 | 0.00 | 0.00 | 58 | 1016.1 |
| 20260505180059 | 26 | 61 | 3.2 | 16.1 | 0.00 | 0.00 | 0.00 | 61 | 1016.2 |
| 20260505174552 | 25 | 100 | 6.4 | 19.3 | 0.00 | 0.00 | 0.00 | 61 | 1016.5 |
| 20260505173052 | 25 | 88 | 6.4 | 17.7 | 0.00 | 0.00 | 0.00 | 60 | 1016.4 |
| 20260505171556 | 25 | 90 | 3.2 | 14.5 | 0.00 | 0.00 | 0.00 | 60 | 1016.4 |
| 20260505170056 | 25 | 98 | 8.0 | 17.7 | 0.00 | 0.00 | 0.00 | 59 | 1016.7 |
| 20260505164601 | 26 | 157 | 3.2 | 12.9 | 0.00 | 0.00 | 0.00 | 59 | 1016.9 |
| 20260505163101 | 26 | 240 | 3.2 | 12.9 | 0.00 | 0.00 | 0.00 | 58 | 1016.8 |
| 20260505161558 | 25 | 46 | 4.8 | 14.5 | 0.00 | 0.00 | 0.00 | 61 | 1017.0 |
| 20260505153115 | 26 | 0 | 3.2 | 11.3 | 0.00 | 0.00 | 0.00 | 58 | 1017.0 |
| 20260505151605 | 25 | 80 | 3.2 | 17.7 | 0.00 | 0.00 | 0.00 | 60 | 1016.8 |
| 20260505140106 | 24 | 119 | 6.4 | 16.1 | 0.00 | 0.00 | 0.00 | 67 | 1016.7 |
| 20260505124556 | 20 | 0 | 0.0 | 4.8 | 0.00 | 0.03 | 0.00 | 88 | 1016.2 |
| 20260505123103 | 17 | 0 | 0.0 | 1.6 | 0.00 | 0.03 | 0.00 | 96 | 1016.1 |
| 20260505121553 | 16 | 0 | 0.0 | 3.2 | 0.00 | 0.03 | 0.00 | 96 | 1016.1 |
| 20260505120052 | 15 | 0 | 0.0 | 0.0 | 0.00 | 0.03 | 0.00 | 96 | 1015.8 |
| 20260505114549 | 15 | 0 | 0.0 | 0.0 | 0.00 | 0.03 | 0.00 | 96 | 1015.6 |
| 20260505113055 | 14 | 0 | 0.0 | 0.0 | 0.00 | 0.03 | 0.00 | 95 | 1015.8 |
| 20260505111555 | 14 | 0 | 0.0 | 3.2 | 0.00 | 0.03 | 0.00 | 95 | 1015.7 |
| 20260505101552 | 13 | 0 | 0.0 | 0.0 | 0.00 | 0.05 | 0.00 | 94 | 1015.0 |
| 20260505100054 | 14 | 0 | 0.0 | 0.0 | 0.00 | 0.05 | 0.00 | 94 | 1015.0 |
| 20260505094553 | 14 | 0 | 0.0 | 0.0 | 0.00 | 0.05 | 0.00 | 93 | 1014.9 |
| 20260505093054 | 14 | 88 | 0.0 | 0.0 | 0.00 | 0.05 | 0.00 | 93 | 1014.7 |
| 20260505091559 | 14 | 0 | 0.0 | 0.0 | 0.00 | 0.05 | 0.00 | 92 | 1014.5 |
| 20260505090059 | 14 | 0 | 0.0 | 0.0 | 0.00 | 0.05 | 0.00 | 92 | 1014.6 |
| 20260505084552 | 14 | 0 | 0.0 | 0.0 | 0.00 | 0.05 | 0.00 | 92 | 1014.5 |
| 20260505083054 | 15 | 0 | 0.0 | 0.0 | 0.00 | 0.05 | 0.00 | 91 | 1014.5 |
| 20260505081559 | 15 | 0 | 0.0 | 0.0 | 0.00 | 0.05 | 0.00 | 90 | 1014.3 |
| 20260505080052 | 15 | 0 | 0.0 | 0.0 | 0.00 | 0.05 | 0.00 | 90 | 1014.4 |
| 20260505074605 | 15 | 0 | 0.0 | 0.0 | 0.00 | 0.05 | 0.00 | 89 | 1014.5 |
| 20260505073054 | 15 | 0 | 0.0 | 0.0 | 0.00 | 0.05 | 0.00 | 89 | 1014.5 |
| 20260505071556 | 15 | 0 | 0.0 | 0.0 | 0.00 | 0.05 | 0.00 | 88 | 1014.7 |
| 20260505070057 | 15 | 0 | 0.0 | 0.0 | 0.00 | 0.05 | 0.00 | 86 | 1014.7 |
| 20260505064556 | 16 | 0 | 0.0 | 0.0 | 0.00 | 0.05 | 0.00 | 84 | 1014.8 |
| 20260505063100 | 16 | 0 | 0.0 | 0.0 | 0.00 | 0.05 | 0.00 | 83 | 1015.0 |
| 20260505061625 | 16 | 0 | 0.0 | 0.0 | 0.00 | 0.05 | 0.00 | 81 | 1015.2 |
| 20260505060059 | 17 | 0 | 0.0 | 0.0 | 0.00 | 0.05 | 0.00 | 79 | 1015.4 |
| 20260505054611 | 17 | 0 | 0.0 | 0.0 | 0.00 | 0.05 | 0.00 | 78 | 1015.5 |
| 20260505053059 | 18 | 0 | 0.0 | 1.6 | 0.00 | 0.05 | 0.00 | 76 | 1015.7 |
| 20260505051553 | 18 | 0 | 0.0 | 0.0 | 0.00 | 0.05 | 0.00 | 75 | 1015.9 |
| 20260505041554 | 20 | 92 | 0.0 | 4.8 | 0.00 | 0.05 | 0.00 | 71 | 1016.3 |
| 20260505034604 | 20 | 71 | 0.0 | 4.8 | 0.00 | 0.05 | 0.05 | 71 | 1016.3 |
| 20260505033103 | 20 | 80 | 1.6 | 9.7 | 0.00 | 0.05 | 0.05 | 71 | 1016.3 |
| 20260505031601 | 20 | 107 | 1.6 | 11.3 | 0.00 | 0.05 | 0.05 | 71 | 1016.3 |
| 20260505024609 | 20 | 80 | 3.2 | 11.3 | 0.00 | 0.05 | 0.05 | 70 | 1016.2 |
| 20260505023057 | 20 | 93 | 3.2 | 9.7 | 0.00 | 0.05 | 0.05 | 70 | 1016.2 |
| 20260505021612 | 20 | 62 | 3.2 | 14.5 | 0.00 | 0.05 | 0.05 | 71 | 1016.3 |
| 20260505020100 | 20 | 117 | 3.2 | 14.5 | 0.00 | 0.05 | 0.05 | 70 | 1016.2 |
| 20260505014558 | 20 | 83 | 3.2 | 11.3 | 0.00 | 0.05 | 0.05 | 70 | 1016.1 |
| 20260505013057 | 20 | 73 | 4.8 | 12.9 | 0.00 | 0.05 | 0.05 | 71 | 1016.1 |
| 20260505011555 | 20 | 80 | 3.2 | 14.5 | 0.00 | 0.05 | 0.05 | 71 | 1016.0 |
| 20260505010054 | 20 | 111 | 3.2 | 11.3 | 0.00 | 0.05 | 0.05 | 70 | 1015.9 |
| 20260505004559 | 21 | 62 | 3.2 | 11.3 | 0.00 | 0.05 | 0.05 | 70 | 1015.8 |
| 20260505003056 | 21 | 89 | 4.8 | 11.3 | 0.00 | 0.05 | 0.05 | 70 | 1015.8 |
| 20260505001553 | 21 | 99 | 1.6 | 12.9 | 0.00 | 0.05 | 0.05 | 70 | 1015.8 |
| 20260505000057 | 21 | 121 | 3.2 | 11.3 | 0.00 | 0.05 | 0.05 | 69 | 1015.6 |
| 20260504234553 | 21 | 114 | 3.2 | 16.1 | 0.00 | 0.05 | 0.05 | 68 | 1015.4 |
| 20260504233100 | 21 | 76 | 6.4 | 17.7 | 0.00 | 0.05 | 0.05 | 67 | 1015.5 |
| 20260504231551 | 22 | 117 | 3.2 | 14.5 | 0.00 | 0.05 | 0.05 | 67 | 1015.2 |
| 20260504230053 | 22 | 61 | 6.4 | 16.1 | 0.00 | 0.05 | 0.05 | 67 | 1015.3 |
| 20260504224553 | 22 | 65 | 3.2 | 16.1 | 0.00 | 0.05 | 0.05 | 67 | 1015.4 |
| 20260504223103 | 22 | 89 | 3.2 | 16.1 | 0.00 | 0.05 | 0.05 | 66 | 1015.3 |
| 20260504221604 | 22 | 94 | 4.8 | 12.9 | 0.00 | 0.05 | 0.05 | 65 | 1015.5 |
| 20260504220134 | 23 | 113 | 4.8 | 17.7 | 0.00 | 0.05 | 0.05 | 65 | 1015.3 |
| 20260504214551 | 23 | 114 | 3.2 | 22.5 | 0.00 | 0.05 | 0.05 | 65 | 1015.2 |
| 20260504213104 | 23 | 71 | 4.8 | 24.1 | 0.00 | 0.05 | 0.05 | 65 | 1015.4 |